map of MLN home
MLN - Airport
Location
City:  Melilla, Melilla, Spain
ICAO:GEML
IATA:MLN

Details
Type:Airport (Aerodrome, Airfield)
Latitude:3516'47"N (35.279817)
Longitude:257'23"W (-2.956255)
Datum:WGS 1984
Elevation:156 ft (48 m)
Variation:0.36W (WMM2015 magnetic declination)
0.11 annual change
Runways:1
Longest:4685 × 148 ft (1428 × 45 m), paved

Time
Time Zone:UTC+1 (DST+2)
Local Time:

Weather
METAR:GEML 151330Z 30009KT 250V330 9999 FEW018 21/14 Q1013
TAF:GEML 150800Z 1509/1609 28014KT 9999 FEW020 SCT030 TX24/1513Z TN18/1605Z PROB40
TEMPO 1511/1518 29015G25KT
BECMG 1518/1520 VRB03KT PROB40
TEMPO 1600/1609 4000 RA BKN014

Related Locations
Nearby:
Farthest:NZOX: 12330 mi / 19842 km
Okiwi Station, AUK, NZ

Find:

   beyond  
but within

Other Information
Maps:
NOTAMs:
Links:
Sources:

  
  • flag of Spain
  • flag of Melilla
  

Sectional Chart

Flight Planning
at skyvector.com

Satellite Image

Google Maps Satellite view

 

Copyright © 2004-2018 Karl L. Swartz. All rights reserved.
The Great Circle Mapper name and logo are trademarks of the Great Circle Mapper.
All other trademarks mentioned herein belong to their respective owners.
Please see credits for attibutions and further copyright information.

  Follow gcmap on Facebook Follow gcmap on Twitter Follow gcmap on Google+ GCmap on LinkedIn

hCard Microformat

Geo Microformat